This is the latest recevied weather packets stored in our database for station/object N3NDE. If no packets are shown the sender has not sent any weather packets the latest 1 day(s).
| Time | Temp. | Humidity | Pressure | Rain* | Wind** | Luminosity | Snow |
|---|---|---|---|---|---|---|---|
| 1778018454 | 7.22° C | 81% | 1012.8 hPa | 0 mm | 0.45 m/s, 39° | 108 W/m² | - |
| 1778018152 | 7.78° C | 82% | 1012.9 hPa | 0 mm | 0.89 m/s, 7° | 116 W/m² | - |
| 1778017849 | 7.78° C | 82% | 1012.8 hPa | 0 mm | 0 m/s | 115 W/m² | - |
| 1778017547 | 7.78° C | 81% | 1012.9 hPa | 0 mm | 0.89 m/s, 37° | 120 W/m² | - |
| 1778017244 | 7.78° C | 83% | 1013 hPa | 0 mm | 0.45 m/s, 48° | 109 W/m² | - |
| 1778016942 | 7.78° C | 82% | 1012.9 hPa | 0 mm | 0.45 m/s, 52° | 98 W/m² | - |
| 1778016637 | 7.78° C | 80% | 1012.9 hPa | 0 mm | 0.89 m/s, 20° | 102 W/m² | - |
| 1778016334 | 7.78° C | 81% | 1013 hPa | 0 mm | 0.45 m/s, 67° | 122 W/m² | - |
| 1778016032 | 8.33° C | 79% | 1012.9 hPa | 0 mm | 1.34 m/s, 234° | 127 W/m² | - |
| 1778015729 | 8.33° C | 81% | 1012.8 hPa | 0 mm | 0.45 m/s, 72° | 130 W/m² | - |
| 1778015425 | 8.33° C | 79% | 1013 hPa | 0 mm | 0.89 m/s, 357° | 161 W/m² | - |
| 1778015122 | 8.33° C | 78% | 1012.5 hPa | 0 mm | 0.45 m/s, 93° | 203 W/m² | - |
| 1778014819 | 8.33° C | 79% | 1012.9 hPa | 0 mm | 0.89 m/s, 35° | 285 W/m² | - |
| 1778014517 | 8.89° C | 77% | 1013 hPa | 0 mm | 0.89 m/s, 32° | 309 W/m² | - |
| 1778014214 | 8.89° C | 82% | 1012.8 hPa | 0 mm | 1.34 m/s, 212° | 658 W/m² | - |
| 1778013912 | 8.89° C | 76% | 1012.9 hPa | 0 mm | 1.34 m/s, 15° | 975 W/m² | - |
| 1778013609 | 8.33° C | 78% | 1012.8 hPa | 0 mm | 0.45 m/s, 55° | 622 W/m² | - |
| 1778013305 | 8.33° C | 79% | 1013 hPa | 0 mm | 0.89 m/s, 128° | 479 W/m² | - |
| 1778013001 | 8.89° C | 77% | 1013.4 hPa | 0 mm | 0.45 m/s, 67° | 341 W/m² | - |
| 1778012698 | 8.33° C | 80% | 1013.3 hPa | 1.78 mm | 0 m/s | 410 W/m² | - |
| 1778012394 | 8.33° C | 80% | 1013.1 hPa | 1.78 mm | 0.45 m/s, 20° | 517 W/m² | - |
| 1778012091 | 8.33° C | 80% | 1013.1 hPa | 0 mm | 0.45 m/s, 68° | 754 W/m² | - |
| 1778011789 | 7.78° C | 81% | 1013 hPa | 0 mm | 0.45 m/s, 57° | 486 W/m² | - |
| 1778011487 | 7.78° C | 77% | 1013 hPa | 0 mm | 0 m/s | 305 W/m² | - |
| 1778011182 | 7.78° C | 77% | 1013.4 hPa | 0 mm | 0 m/s | 244 W/m² | - |
* Rain latest hour (hover to see other rain measurements)
** Current wind speed in m/s (hover to see current wind gust speed)